Regional Weather Roundup
Issued by NWS Charleston, SC

Current Version | Previous Version | Graphics & Text | Print | Product List | Glossary On
Versions: 1 2 3 4 5 6 7 8 9 10 11 12 13 14 15 16 17 18 19 20 21 22 23 24 25 26 27 28 29 30 31 32 33 34 35 36 37 38 39 40 41 42 43 44 45 46 47 48 49 50
000
ASUS42 KCHS 101627
RWRCHS

REGIONAL WEATHER ROUNDUP
NATIONAL WEATHER SERVICE CHARLESTON SC
1100 AM EST WED FEB 10 2016

NOTE: "FAIR" INDICATES FEW OR NO CLOUDS BELOW 12,000 FEET WITH NO
SIGNIFICANT WEATHER AND/OR OBSTRUCTIONS TO VISIBILITY.

NOT ALL STATIONS ARE QUALITY CONTROLLED BY THE NATIONAL
WEATHER SERVICE. USE DATA WITH CAUTION...ESPECIALLY
DEWPOINT OBSERVATIONS.

SCZ027-030-031-034>040-042>050-101700-
...SOUTHEAST SOUTH CAROLINA...

CITY           SKY/WX    TMP DP  RH WIND       PRES   REMARKS
N CHARLESTON   MOSUNNY   37  16  42 W14       30.06S WCI  28
WATERFRONT PRK   N/A     34  19  54 W9        29.90S WCI  27
MOUNT PLEASANT FAIR      37  19  48 W13G20    30.05F WCI  29
JOHNS ISLAND   FAIR      39  19  45 W12G18    30.06S WCI  32
PINOPOLIS        N/A     34  19  55 W16       29.96F WCI  23
MONCKS CORNER  PTSUNNY   34  14  44 W10G16    30.05S WCI  26
SUMMERVILLE    FAIR      36  21  55 W13G21    30.07S WCI  27
BEAUFORT MCAS  MOSUNNY   38  18  44 W17G28    30.10R WCI  28
BEAUFORT ARPT  FAIR      37  19  48 W15G30    30.09S WCI  28
HILTON HEAD IS MOSUNNY   36  23  60 W17G26    30.11S WCI  25
WALTERBORO     PTSUNNY   39  19  45 W14G23    30.07F WCI  31
ALLENDALE      FAIR      36  16  44 CALM      30.07F

...SOUTHERN MIDLANDS AND PEE DEE...

CITY           SKY/WX    TMP DP  RH WIND       PRES   REMARKS
GEORGETOWN     NOT AVBL
KINGSTREE      NOT AVBL
ORANGEBURG     PTSUNNY   34  15  46 W16       30.05F WCI  24
BARNWELL       FAIR      37  19  48 W14G23    30.06F WCI  29
AIKEN          FAIR      32  14  47 W17G25    30.07S WCI  21
MANNING        FAIR      32  14  47 SW13G21   30.04S WCI  22
COLUMBIA       PTSUNNY   33  13  43 W18G25    30.04S WCI  22
SUMTER         MOSUNNY   34  14  44 W14G22    29.99F WCI  24
FLORENCE       SUNNY     34  17  50 W10       30.00F WCI  26
MYRTLE BEACH   SUNNY     37  18  44 W12       30.01F WCI  30
N MYRTLE BEACH SUNNY     37  20  50 NW12      29.98F WCI  29

$$

GAZ063-065-086>088-099>101-113>116-118-119-134>141-150-101700-
...SOUTHEAST GEORGIA...

CITY           SKY/WX    TMP DP  RH WIND       PRES   REMARKS
SAVANNAH ARPT  MOSUNNY   38  17  42 W23G29    30.12S WCI  27
HUNTER AAF     SUNNY     38  18  43 W20       30.09S WCI  28
FORT STEWART   SUNNY     38  18  44 W23G33    30.12S WCI  27
STATESBORO     SUNNY     41  11  29 W16G24    30.12F
SYLVANIA       SUNNY     37  21  51 W17       30.11F WCI  28
CLAXTON        FAIR      38  23  54 SW18G26   30.14F WCI  28

...CSRA...CENTRAL AND FAR SOUTHEAST GEORGIA...

CITY           SKY/WX    TMP DP  RH WIND       PRES   REMARKS
THOMSON        SUNNY     34  15  47 W18G28    30.15R WCI  23
AUGUSTA-BUSH   SUNNY     34  11  38 W20G29    30.09F WCI  23
AUGUSTA-DANIEL NOT AVBL
SWAINSBORO     FAIR      36  16  44 W14G22    30.14S WCI  27
VIDALIA        MOSUNNY   37  18  44 W10G21    30.15F WCI  30
EASTMAN        FAIR      36  11  36 NW12G23   30.22R WCI  27
HAZLEHURST     FAIR      39  15  38 W12G17    30.17S WCI  32
ALMA           SUNNY     36  17  46 W15G26    30.19R WCI  27
WAYCROSS       SUNNY     42  22  45 NW17      30.19S
JESUP          FAIR      41  23  48 NW21G26   30.17S
BAXLEY         FAIR      37  18  44 W14G22    30.17F WCI  29
BRUNSWICK      SUNNY     41  21  45 W14G26    30.16S
SAINT SIMONS   SUNNY     39  18  42 W16G25    30.15S WCI  30

$$

SCZ027-028-034-036>038-045-046-048>050-GAZ119-141-101700-
...LAKE AND SUPPLEMENTAL COASTAL OBSERVATIONS...

STATION/POSITION TIME  TEMP    WIND        PRES    WAVE   SWELL
                       AIR SEA DIR/SP/G            HT/PER HT/PER/DIR
                 (UTC) (F)     (DEG/KT/KT) (MB)    (FT/S) (FT/S/D)
WINYAH BAY       1545   35     270/ 11     1015.0S
LAKE MURRAY      1500   30     290/  9/ 19 1016.6R
ACE BASIN NERRS  1545   36     270/  6     1018.0S
FORT PULASKI     1600   35 50  280/ 21/ 24 1019.7F
SAPELO ISLAND    1600   38     280/ 20     1021.0R

$$

ANZ835-935-AMZ111-154-330-350-352-354-370-450-454-472-101700-
...C-MAN AND BUOY OBSERVATIONS...

STATION/POSITION TIME  TEMP    WIND        PRES    WAVE   SWELL
                       AIR SEA DIR/SP/G            HT/PER HT/PER/DIR
                 (UTC) (F)     (DEG/KT/KT) (MB)    (FT/S) (FT/S/D)
BUOY 41004       1550   38 63  270/ 21/ 27 1016.7R   7/ 7   2/14
BUOY 41008       1550   38 54  280/ 21/ 27 1019.8R   5/ 5
FOLLY BEACH CMAN 1600   36     270/  8/ 11 1017.8F
CAPERS NEARSHORE 1508   34     280/ 17/ 23 1017.1S
FRIPP NEARSHORE  1500   36     300/ 19/ 23 1018.2S


STATION/POSITION TIME  TEMP    WIND        PRES    WAVE   SWELL
                       AIR SEA DIR/SP/G            HT/PER HT/PER/DIR
                 (UTC) (F)     (DEG/KT/KT) (MB)    (FT/S) (FT/S/D)
5E ST. MARYS GA  1521      55                N/A     3/17   2/ 70/17
FRYING PAN BUOY  1600   39 60  260/ 17/ 23 1015.4S
BUOY 41025       1550   37 72  290/ 21/ 25 1013.0R   8/ 7   3/ 70/13
CAPE LOOKOUT NC  NOT AVBL
BUOY 41002       1550   54 68  280/ 31/ 39   N/A    19/11  11/270/11
BUOY 41010       1520   57 72              1021.2R
ST AUGUSTINE FL  1600   47 55  290/ 20/ 27 1022.9F


$$



USA.gov is the U.S. government's official web portal to all federal, state and local government web resources and services.